Find Hawk 9B

NORAD ID: 59450 Int'l Des: 2024-066 Owner: HE360 Country: US operational
LEOCIRCULAR

リアルタイム位置

3D地球を読み込み中...

Hawk 9Bについて

説明を読み込み中...

次回通過

Passes for default location (London). Set your location on the main map for personalized predictions.

高度履歴

Loading altitude history...

軌道要素

1 59450U 24066J 26105.82260608 .00000862 00000-0 88986-4 0 9996
2 59450 45.6226 240.4067 0002249 34.9603 325.1425 14.98945882110478
Epoch: Apr 15, 2026 • Age: 9 hours

現在のステータス

高度 573.4 km
速度 7.58 km/s
衛星直下点 -17.64°S, 62.47°W
打ち上げ日 Apr 7, 2024
運用期間 2 years
タイプ other

技術仕様

分類 Payload
質量 31.00 kg
乾燥質量 30.00 kg
総質量 31.00 kg
長さ 0.45 m
直径 0.30 m
スパン 1.00 m
形状 Box + 2 pan
製造者 UTIAS
バスタイプ Hawk2G
フェーズステータス In Orbit
所有者/国 HE360/US

Most Searched